CAPE
0 0 0 0 0 0 0 0 0 0 5 4 0 9 173 204 643 635 400 341 319 220 283 146 91 69 121 251 524 591 978 1343
0 0 0 0 0 0 0 0 0 0 0 0 0 0 14 154 354 714 466 500 444 433 291 246 191 114 107 318 421 973 1260 1499
0 0 0 0 0 0 0 0 0 0 0 3 1 4 23 118 267 779 428 531 518 532 463 543 599 386 515 756 1318 1511 1480 1588
0 0 0 0 0 0 0 0 0 0 0 0 0 2 25 110 147 530 465 531 545 569 573 662 829 844 929 1307 1468 1592 1574 1816
0 0 0 0 0 0 0 0 0 0 0 0 7 19 95 136 194 272 509 593 669 641 682 798 903 1126 1300 1632 1681 1517 1137 1553
0 0 0 0 0 0 0 0 0 0 0 0 1 54 150 303 416 255 341 694 773 727 739 934 1018 1186 1497 1648 1511 1134 1076 1607
0 0 0 0 0 0 0 0 0 0 0 18 29 77 202 479 573 622 565 636 744 791 913 955 1000 1243 1567 1390 1346 1219 1036 1079
0 0 0 0 0 0 0 0 0 0 18 95 208 174 189 420 684 780 788 668 707 834 967 921 1034 1063 996 734 570 422 428 247
0 0 0 0 0 0 0 0 8 0 37 135 257 326 152 432 670 814 917 844 693 783 990 924 814 694 725 623 301 239 167 77
0 0 0 0 0 0 0 2 42 69 211 301 380 427 313 262 562 719 889 1110 888 976 882 777 507 379 204 158 147 127 61 42
0 0 0 0 0 12 2 0 69 318 423 385 333 371 457 315 475 648 678 1175 1077 885 739 549 315 103 34 3 2 13 6 26
1 0 0 0 53 365 346 0 220 482 471 453 347 392 391 191 315 506 741 897 898 865 625 439 165 23 2 0 0 4 18 7
196 73 6 0 263 365 56 51 397 632 676 518 458 451 170 221 466 791 1051 1106 1037 779 726 578 160 1 0 0 0 0 0 0
158 197 137 300 257 331 240 129 331 470 658 655 356 337 283 338 626 778 866 1033 939 818 729 600 138 41 10 3 5 0 0 0
356 410 236 322 247 118 17 111 125 217 336 550 316 507 384 598 791 949 922 969 955 1014 783 540 308 154 34 0 0 0 0 0
241 218 375 314 72 22 1 29 7 44 87 352 331 460 573 733 671 751 839 860 966 872 637 490 338 199 65 0 0 0 0 0
130 208 220 48 24 20 43 73 79 231 309 346 216 533 603 833 921 698 1002 918 850 864 706 414 125 49 5 3 0 0 0 0
190 246 377 153 27 9 0 0 7 18 241 500 175 328 565 882 850 788 557 513 426 369 176 8 11 20 11 0 0 0 0 0
387 164 189 31 3 0 0 0 0 0 20 500 831 779 890 957 859 491 481 354 209 70 27 0 23 20 0 0 0 0 0 0
CIN
-0 -0 -0 -0 -0 -0 -0 -0 -0 -0 -39 -105 -0 -78 -208 -193 -175 -158 -170 -187 -185 -215 -180 -186 -191 -203 -158 -131 -83 -78 -48 -27
-0 -0 -0 -0 -0 -0 -0 -0 -0 -0 -0 -0 -0 -0 -105 -163 -184 -156 -162 -158 -153 -161 -175 -170 -159 -212 -228 -147 -112 -65 -44 -29
-0 -0 -0 -0 -0 -0 -0 -0 -0 -0 -0 -40 -10 -13 -83 -142 -198 -151 -145 -111 -112 -117 -114 -100 -99 -136 -119 -104 -60 -45 -42 -33
-0 -0 -0 -0 -0 -0 -0 -0 -0 -0 -0 -0 -0 -83 -150 -159 -211 -170 -105 -87 -82 -91 -89 -89 -83 -87 -81 -73 -66 -49 -45 -25
-0 -0 -0 -0 -0 -0 -0 -0 -0 -0 -0 -0 -162 -180 -215 -184 -247 -241 -139 -126 -88 -85 -84 -80 -90 -82 -73 -60 -53 -63 -92 -57
-0 -0 -0 -0 -0 -0 -0 -0 -0 -0 -0 -0 -31 -123 -194 -229 -259 -270 -226 -155 -103 -98 -78 -87 -108 -111 -78 -66 -85 -83 -93 -61
-0 -0 -0 -0 -0 -0 -0 -0 -0 -0 -0 -35 -100 -168 -182 -238 -261 -235 -234 -204 -145 -119 -102 -125 -150 -142 -107 -122 -129 -124 -94 -91
-0 -0 -0 -0 -0 -0 -0 -0 -0 -0 -83 -137 -236 -309 -318 -271 -239 -230 -203 -190 -147 -133 -138 -181 -204 -201 -213 -238 -241 -247 -258 -184
-0 -0 -0 -0 -0 -0 -0 -0 -30 -0 -67 -232 -164 -208 -290 -273 -272 -204 -166 -179 -188 -179 -177 -245 -288 -288 -271 -275 -325 -322 -363 -326
-0 -0 -0 -0 -0 -0 -0 -51 -122 -133 -183 -231 -229 -295 -410 -416 -326 -260 -222 -174 -200 -223 -292 -332 -351 -323 -327 -304 -278 -329 -362 -361
-0 -0 -0 -0 -5 -77 -29 -0 -146 -142 -253 -271 -324 -310 -238 -449 -403 -326 -279 -204 -232 -327 -360 -357 -374 -441 -442 -314 -59 -216 -48 -294
-10 -0 -0 -0 -237 -333 -211 -0 -190 -221 -218 -240 -326 -97 -150 -508 -525 -435 -358 -317 -306 -357 -370 -348 -385 -432 -436 -6 -0 -199 -111 -88
-66 -51 -76 -0 -361 -389 -47 -79 -296 -299 -280 -291 -224 -255 -496 -610 -521 -432 -353 -332 -309 -353 -320 -272 -362 -73 -0 -0 -0 -0 -0 -0
-101 -54 -29 -379 -351 -133 -322 -466 -396 -377 -328 -307 -382 -419 -457 -489 -443 -420 -391 -338 -314 -312 -285 -233 -355 -356 -280 -151 -0 -0 -0 -0
-108 -89 -373 -410 -359 -443 -510 -432 -418 -406 -385 -362 -343 -295 -380 -361 -389 -381 -386 -334 -262 -211 -222 -224 -256 -264 -246 -0 -0 -0 -0 -0
-157 -251 -265 -314 -383 -381 -200 -391 -401 -393 -353 -320 -260 -249 -248 -275 -339 -349 -325 -300 -236 -212 -216 -205 -193 -196 -206 -0 -0 -0 -0 -0
-173 -222 -246 -326 -366 -355 -342 -314 -256 -247 -243 -236 -270 -186 -202 -190 -211 -276 -185 -186 -195 -163 -164 -190 -234 -238 -112 -0 -0 -0 -0 -0
-72 -149 -142 -214 -316 -332 -0 -0 -225 -180 -162 -186 -241 -189 -194 -155 -191 -199 -232 -235 -223 -222 -262 -96 -340 -259 -265 -0 -0 -0 -0 -0
-96 -199 -205 -295 -281 -0 -0 -0 -0 -6 -220 -155 -146 -150 -144 -147 -179 -234 -221 -238 -237 -309 -363 -60 -292 -259 -11 -0 -0 -0 -0 -0
Wind_Speed
10 9 5 8 10 13 15 16 20 19 23 7 15 14 18 18 16 6 8 7 10 12 14 15 15 17 19 19 19 19 19 15
9 8 12 12 7 13 14 20 25 20 22 28 23 20 9 12 18 7 4 10 9 12 15 16 16 17 18 17 18 19 17 16
10 9 7 10 12 14 15 17 25 29 22 11 15 24 21 3 8 4 2 6 6 8 19 18 13 14 15 13 12 10 6 4
14 15 15 13 16 10 18 19 18 22 26 14 27 27 28 10 4 3 6 5 2 2 17 17 16 14 12 7 4 4 4 5
15 15 15 13 12 13 16 18 16 19 27 20 25 26 9 6 9 14 26 28 21 7 18 17 13 10 6 4 3 4 4 4
13 15 17 17 14 10 12 16 20 9 31 32 28 27 21 7 10 22 29 23 14 10 15 3 5 7 6 2 3 7 6 5
19 18 16 15 12 11 11 13 13 26 19 28 28 27 14 8 6 9 13 17 11 17 12 7 5 5 4 1 3 4 7 7
28 21 19 21 20 17 11 10 6 17 30 28 27 24 14 6 4 11 21 19 10 7 7 8 7 4 3 1 1 2 1 8
28 20 18 25 15 10 12 9 8 11 27 26 26 23 16 9 3 2 10 11 8 10 10 6 5 5 4 3 3 1 1 3
25 16 22 19 15 13 10 9 5 27 29 25 25 23 20 12 3 2 4 4 7 6 4 4 3 2 3 3 2 2 4 7
23 25 26 21 16 12 10 11 13 9 24 23 21 20 21 12 3 3 0 3 4 6 6 5 6 5 4 5 5 7 13 15
21 28 27 20 15 16 15 20 16 8 13 17 15 21 19 20 11 12 13 7 4 6 2 5 5 6 7 9 11 13 14 16
21 27 28 22 15 15 19 23 19 16 14 13 18 23 21 15 11 12 8 6 3 1 2 3 5 4 6 6 8 7 5 10
25 28 34 17 16 21 23 21 20 19 18 15 18 17 15 13 11 8 7 5 4 3 2 1 1 2 1 5 7 8 5 12
23 26 21 19 21 20 19 19 20 21 22 18 14 15 15 13 10 9 8 7 4 3 3 1 2 2 3 2 5 8 3 11
21 19 20 20 17 17 18 19 20 21 21 19 15 17 15 15 14 12 10 7 4 3 2 1 1 1 2 2 0 3 3 0
24 19 13 15 15 16 15 16 17 18 19 22 21 20 20 20 14 10 6 5 4 4 4 2 1 1 1 3 4 2 0 1
19 14 16 15 15 16 15 17 18 19 19 18 18 20 19 15 12 9 8 7 8 7 5 3 2 1 1 2 1 1 2 3
16 13 10 10 14 16 17 19 21 17 21 19 16 16 14 13 12 10 9 9 8 6 6 3 2 1 1 1 2 3 6 6
Wind_Direction
263 268 274 302 314 330 332 333 326 333 332 334 337 332 332 322 327 343 116 105 103 115 128 133 135 141 141 140 140 139 140 126
266 271 284 294 327 321 328 319 314 330 332 289 315 331 15 343 314 319 110 125 103 117 129 129 129 132 133 129 130 132 126 125
270 258 252 289 300 313 326 325 312 307 321 5 353 315 325 20 357 327 162 129 105 103 134 128 112 113 115 110 104 95 76 15
262 278 286 289 296 309 309 317 324 323 309 352 294 283 284 6 119 60 157 138 273 261 130 129 126 121 113 89 50 12 23 4
273 273 279 278 290 298 310 319 325 319 271 328 298 283 255 89 108 138 160 170 153 138 143 138 127 119 104 72 20 337 357 13
264 273 274 271 279 294 306 318 327 320 254 267 279 297 327 67 101 157 172 158 145 140 145 156 129 118 111 46 328 300 322 9
275 278 278 282 276 287 300 310 327 302 318 278 288 298 350 21 52 125 146 151 149 152 146 147 152 143 118 52 359 316 313 297
270 277 275 276 279 289 299 313 314 316 261 275 298 301 326 360 72 142 160 153 151 159 158 155 153 167 173 167 102 103 15 289
269 280 277 273 265 267 298 307 317 318 289 293 290 293 312 323 347 125 151 157 162 160 158 165 167 176 181 189 159 174 143 297
271 277 275 284 289 287 278 298 282 285 280 293 294 297 301 312 142 317 285 167 175 246 208 189 203 211 177 172 244 220 259 287
273 271 280 283 283 287 296 300 305 293 290 292 303 312 304 327 339 322 341 300 278 275 256 214 199 191 199 234 241 294 299 274
278 269 271 284 287 290 300 298 316 318 303 296 309 299 309 305 314 300 293 305 294 280 217 181 211 203 234 271 292 264 264 269
275 272 272 284 288 290 286 299 308 310 307 305 300 293 302 323 325 314 326 329 22 355 261 212 193 227 288 310 316 304 242 243
268 272 265 290 286 280 291 298 302 304 303 304 303 305 315 319 319 329 337 349 5 4 347 231 202 257 334 352 18 101 168 241
269 275 289 285 287 289 297 299 302 300 300 299 301 305 309 313 320 316 319 324 348 23 75 98 245 268 313 354 53 91 112 255
278 284 283 284 293 297 298 301 301 301 299 297 299 302 299 304 304 307 311 312 325 348 354 35 149 167 317 312 48 129 117 323
271 281 294 301 302 304 313 316 318 318 306 293 288 292 292 297 306 310 325 323 323 339 335 323 117 104 84 111 130 129 323 330
285 289 286 287 301 308 320 317 315 316 314 313 296 294 295 299 316 317 311 314 312 327 334 348 107 133 117 109 117 306 336 345
296 300 295 306 311 316 314 312 299 309 319 317 318 310 307 319 319 325 318 309 314 315 314 326 299 245 218 231 280 300 310 314